sat.trackr.live / text

‹ back to catalog

STARLINK-37096

NORAD 68239 · 2026-054H

PAYLOAD ACTIVE UNKNOWN

§ Identity

Operator
Country
US
Launch date
2026-03-17
Launch site
AFETR
Launch vehicle
Mass (kg)
RCS (m²)

Purposes: comms

External: N2YO · Heavens-Above · Gunter

§ Orbital elements

Epoch: 2026-05-25T00:00:02.000160Z

Period
93.79 min
Inclination
53.1583°
Eccentricity
0.0000709
Mean motion
15.35402493 rev/d
Perigee alt
459.2 km
Apogee alt
460.2 km
Semi-major
6,837.9 km
B*
5.7271e-5
RAAN
295.7891°
Arg perigee
43.7141°
Mean anomaly
105.5456°
Rev number
592

§ Raw data

STARLINK-370961 68239U 26054H   26145.00002315  .00001618  00000+0  57271-4 0  99952 68239  53.1583 295.7891 0000709  43.7141 105.5456 15.35402493  5920

JSON: /api/v1/satellites/68239 · /tle

For live sub-satellite position, see the globe view (requires WebGL).

§ Visibility from observer

Set your observer location to see the next 7 days of passes ≥ 10°. The values pass through the URL so the page stays shareable.

No JS? Fill the form by hand. The geolocation button needs JavaScript.